Location: Coll
(42.4728°N, 0.7714°E)
Time: 06:43:37
(UTC+00:00)

Cosmos 1048 Rocket - Pass Details

Date: 23 October 2020
Orbit: 743 x 792 km, 74.0° (Epoch: 23 November)

Event Time Altitude Azimuth Distance (km) Brightness Sun altitude
Exits shadow 04:22:37 44° 306° (NW) 1,075 4.4 -22.2°
Drops below altitude 10° 04:27:23 10° 8° (N) 2,350 6.6 -21.4°
Sets 04:29:55 0° 15° (NNE) 3,288 7.5 -20.9°
